National Weather Service Raw Text Product

Displaying AFOS PIL: RWRIN Received: 2018-05-27 03:00 UTC


884 
ASUS43 KIND 270300
RWRIN 

WEATHER ROUNDUP FOR INDIANA
NATIONAL WEATHER SERVICE INDIANAPOLIS IN
1100 PM EDT SAT MAY 26 2018

NOTE: "FAIR" INDICATES FEW OR NO CLOUDS BELOW 12,000 FEET WITH NO
SIGNIFICANT WEATHER AND/OR OBSTRUCTIONS TO VISIBILITY.

* - STATION DOES NOT REPORT WEATHER SUCH AS PRECIPITATION OR FOG.

+ - STATION NOT QUALITY CONTROLLED BY THE NATIONAL WEATHER SERVICE.
    USE DATA WITH CAUTION...ESPECIALLY DEWPOINT AND RELATIVE
    HUMIDITY OBSERVATIONS.

INZ001>003-010>013-019-020-270400-
NORTHWEST INDIANA
  
CITY           SKY/WX    TMP DP  RH WIND       PRES   REMARKS
GARY /AIRPORT/ PTCLDY    72  64  78 CALM      29.81R                  
MICHIGAN CITY+ FAIR      68  63  83 CALM      29.82R                  
MONTICELLO +   FAIR      72  65  78 CALM      29.82R                  

$$

LMZ046-743>745-270400-
SOUTHERN LAKE MICHIGAN
  
STATION/POSITION TIME  TEMP    WIND        PRES    WAVE
                       AIR SEA DIR/SP/G            HT
                 (UTC) (F)     (DEG/KT/KT) (MB)    (FT)
BURNS HARBOR     0240   74      CALM  /  3 1009.8R
MICHIGAN CITY    0230   78      90/  4/  5   N/A
5NW MICH CITY    0250   70 65  120/  4/  6   N/A     0

$$

INZ004-005-014>016-021>024-270400-
NORTH CENTRAL INDIANA
  
CITY           SKY/WX    TMP DP  RH WIND       PRES   REMARKS
GOSHEN         FAIR      71  61  70 CALM      29.83R                  
PERU/GRISSOM   FAIR      73  70  89 CALM      29.83R                  
SOUTH BEND     FAIR      70  61  73 CALM      29.83R                  
WARSAW +       FAIR      68  59  73 CALM      29.84R                  

$$

INZ006>009-017-018-025>027-270400-
NORTHEAST INDIANA
  
CITY           SKY/WX    TMP DP  RH WIND       PRES   REMARKS
ANGOLA *+      FAIR      70  66  88 CALM      29.84R                  
AUBURN +       FAIR      70  68  94 CALM      29.85R                  
FORT WAYNE     FAIR      75  67  76 S5        29.84R                  
KENDALLVILLE + FAIR      70  63  79 SE5       29.85R                  

$$

INZ028-029-035-036-043>045-051>053-270400-
WEST CENTRAL INDIANA
  
CITY           SKY/WX    TMP DP  RH WIND       PRES   REMARKS
CRAWFORDSVL +  FAIR      72  66  79 CALM      29.84R                  
GREENCASTLE +  FAIR      70  63  78 CALM      29.85R                  
LAFAYETTE      FAIR      73  69  87 CALM      29.81R                  
TERRE HAUTE    FAIR      76  67  73 CALM      29.83R                  

$$

INZ030>032-037>040-046>048-054>057-064-065-270400-
CENTRAL INDIANA
  
CITY           SKY/WX    TMP DP  RH WIND       PRES   REMARKS
ANDERSON       FAIR      73  64  72 CALM      29.86R                  
FRANKFORT +    FAIR      77  69  75 SW3       29.86R                  
GREENWOOD *+   FAIR      74  70  88 S5        29.85R                  
INDIANAPOLIS   FAIR      75  66  73 S8        29.84R                  
-EAGLE CREEK   FAIR      75  67  76 MISG      29.83R                  
KOKOMO +       FAIR      76  66  71 CALM      29.85R                  
MT COMFORT *+  FAIR      70  70 100 CALM      29.85R                  
SHELBYVILLE    FAIR      74  64  71 SE7       29.84S                  

$$

INZ033-034-041-042-049-050-058-059-270400-
EAST CENTRAL INDIANA
  
CITY           SKY/WX    TMP DP  RH WIND       PRES   REMARKS
MUNCIE         FAIR      76  64  66 CALM      29.84R                  
RICHMOND +     FAIR      70  68  94 S3        29.88R                  

$$

INZ060-061-067>069-081>083-085>088-270400-
SOUTHWEST INDIANA
  
CITY           SKY/WX    TMP DP  RH WIND       PRES   REMARKS
EVANSVILLE     FAIR      78  69  73 SW5       29.86R                  
HUNTINGBURG +  FAIR      79  70  74 S7        29.86R                  

$$

INZ062-063-066-070>080-084-089>092-270400-
SOUTH CENTRAL AND SOUTHEAST INDIANA
  
CITY           SKY/WX    TMP DP  RH WIND       PRES   REMARKS
BLOOMINGTON    CLOUDY    74  69  85 CALM      29.85R                  
FRENCH LICK *+ FAIR      77  59  53 SW3       29.87R                  
SEYMOUR +      FAIR      75  68  78 S6        29.85R                  

$$